| time (UTC) | temp C | wind direction | speed KPH | gust KPH | rain 1hr cm | rain 24hr cm | rain mn cm | humidity % | barometer mb |
| 20260505122031 | 15 | 249 | 1.6 | 4.8 | 0.00 | 0.00 | 0.00 | 70 | 1023.9 |
| 20260505121049 | 15 | 321 | 1.6 | 3.2 | 0.00 | 0.00 | 0.00 | 69 | 1023.9 |
| 20260505120026 | 15 | 314 | 0.0 | 3.2 | 0.00 | 0.00 | 0.00 | 69 | 1023.9 |
| 20260505115043 | 15 | 323 | 1.6 | 4.8 | 0.00 | 0.00 | 0.00 | 68 | 1023.9 |
| 20260505114020 | 16 | 339 | 1.6 | 3.2 | 0.00 | 0.00 | 0.00 | 67 | 1024.0 |
| 20260505113018 | 16 | 324 | 1.6 | 6.4 | 0.00 | 0.00 | 0.00 | 67 | 1024.0 |
| 20260505112035 | 16 | 309 | 1.6 | 3.2 | 0.00 | 0.00 | 0.00 | 67 | 1024.0 |
| 20260505111033 | 16 | 313 | 1.6 | 3.2 | 0.00 | 0.00 | 0.00 | 67 | 1024.0 |
| 20260505110112 | 16 | 290 | 0.0 | 1.6 | 0.00 | 0.00 | 0.00 | 67 | 1023.9 |
| 20260505102102 | 16 | 334 | 1.6 | 4.8 | 0.00 | 0.00 | 0.00 | 68 | 1023.9 |
| 20260505101019 | 16 | 323 | 3.2 | 9.7 | 0.00 | 0.00 | 0.00 | 69 | 1023.8 |
| 20260505100057 | 16 | 308 | 1.6 | 6.4 | 0.00 | 0.00 | 0.00 | 69 | 1023.9 |
| 20260505095054 | 16 | 313 | 1.6 | 6.4 | 0.00 | 0.00 | 0.00 | 69 | 1023.9 |
| 20260505094052 | 16 | 319 | 1.6 | 4.8 | 0.00 | 0.00 | 0.00 | 68 | 1023.9 |
| 20260505093029 | 16 | 313 | 1.6 | 4.8 | 0.00 | 0.00 | 0.00 | 69 | 1023.9 |
| 20260505092028 | 16 | 313 | 1.6 | 4.8 | 0.00 | 0.00 | 0.00 | 69 | 1023.8 |
| 20260505091044 | 16 | 315 | 1.6 | 4.8 | 0.00 | 0.00 | 0.00 | 68 | 1023.8 |
| 20260505090022 | 16 | 314 | 1.6 | 4.8 | 0.00 | 0.00 | 0.00 | 68 | 1023.7 |
| 20260505085021 | 16 | 305 | 1.6 | 4.8 | 0.00 | 0.00 | 0.00 | 68 | 1023.7 |
| 20260505084017 | 16 | 312 | 1.6 | 4.8 | 0.00 | 0.00 | 0.00 | 68 | 1023.6 |
| 20260505083035 | 16 | 304 | 1.6 | 6.4 | 0.00 | 0.00 | 0.00 | 68 | 1023.4 |
| 20260505082112 | 16 | 311 | 1.6 | 4.8 | 0.00 | 0.00 | 0.00 | 68 | 1023.3 |
| 20260505081030 | 16 | 313 | 1.6 | 4.8 | 0.00 | 0.00 | 0.00 | 69 | 1023.2 |
| 20260505080028 | 16 | 321 | 1.6 | 3.2 | 0.00 | 0.00 | 0.00 | 69 | 1023.2 |
| 20260505075024 | 16 | 316 | 1.6 | 4.8 | 0.00 | 0.00 | 0.00 | 69 | 1023.1 |
| 20260505074021 | 16 | 311 | 0.0 | 1.6 | 0.00 | 0.00 | 0.00 | 69 | 1023.0 |
| 20260505073018 | 16 | 314 | 1.6 | 3.2 | 0.00 | 0.00 | 0.00 | 69 | 1022.9 |
| 20260505072055 | 16 | 311 | 0.0 | 3.2 | 0.00 | 0.00 | 0.00 | 70 | 1022.8 |
| 20260505071033 | 16 | 306 | 0.0 | 3.2 | 0.00 | 0.00 | 0.00 | 69 | 1022.7 |
| 20260505070050 | 16 | 306 | 1.6 | 6.4 | 0.00 | 0.00 | 0.00 | 69 | 1022.8 |
| 20260505065027 | 16 | 314 | 1.6 | 4.8 | 0.00 | 0.00 | 0.00 | 69 | 1022.7 |
| 20260505064045 | 16 | 317 | 1.6 | 4.8 | 0.00 | 0.00 | 0.00 | 69 | 1022.7 |
| 20260505063023 | 16 | 309 | 0.0 | 3.2 | 0.00 | 0.00 | 0.00 | 68 | 1022.7 |
| 20260505062020 | 16 | 310 | 1.6 | 6.4 | 0.00 | 0.00 | 0.00 | 67 | 1022.6 |
| 20260505061017 | 16 | 331 | 1.6 | 6.4 | 0.00 | 0.00 | 0.00 | 66 | 1022.5 |
| 20260505060114 | 16 | 299 | 1.6 | 4.8 | 0.00 | 0.00 | 0.00 | 66 | 1022.4 |
| 20260505055052 | 16 | 308 | 1.6 | 9.7 | 0.00 | 0.00 | 0.00 | 65 | 1022.3 |
| 20260505053046 | 16 | 320 | 1.6 | 6.4 | 0.00 | 0.00 | 0.00 | 64 | 1022.1 |
| 20260505052023 | 16 | 312 | 1.6 | 3.2 | 0.00 | 0.00 | 0.00 | 63 | 1022.0 |
| 20260505051021 | 16 | 332 | 0.0 | 6.4 | 0.00 | 0.00 | 0.00 | 62 | 1022.0 |
| 20260505041027 | 16 | 337 | 1.6 | 4.8 | 0.00 | 0.00 | 0.00 | 64 | 1021.5 |
| 20260505040024 | 16 | 169 | 0.0 | 1.6 | 0.00 | 0.00 | 0.00 | 63 | 1021.5 |
| 20260505035022 | 16 | 130 | 1.6 | 4.8 | 0.00 | 0.00 | 0.00 | 63 | 1021.5 |
| 20260505034019 | 16 | 238 | 1.6 | 4.8 | 0.00 | 0.00 | 0.00 | 63 | 1021.4 |
| 20260505033016 | 16 | 293 | 1.6 | 4.8 | 0.00 | 0.00 | 0.00 | 64 | 1021.5 |
| 20260505032035 | 16 | 345 | 1.6 | 4.8 | 0.00 | 0.00 | 0.00 | 65 | 1021.5 |
| 20260505031112 | 16 | 306 | 3.2 | 9.7 | 0.00 | 0.00 | 0.00 | 67 | 1021.5 |
| 20260505030049 | 16 | 315 | 3.2 | 9.7 | 0.00 | 0.00 | 0.00 | 67 | 1021.6 |
| 20260505025026 | 16 | 327 | 1.6 | 6.4 | 0.00 | 0.00 | 0.00 | 68 | 1021.7 |
| 20260505024045 | 16 | 287 | 3.2 | 11.3 | 0.00 | 0.00 | 0.00 | 68 | 1021.5 |
| 20260505023021 | 16 | 314 | 3.2 | 9.7 | 0.00 | 0.00 | 0.00 | 69 | 1021.6 |
| 20260505022020 | 16 | 311 | 3.2 | 6.4 | 0.00 | 0.00 | 0.00 | 69 | 1021.7 |
| 20260505021016 | 16 | 310 | 3.2 | 14.5 | 0.00 | 0.00 | 0.00 | 69 | 1021.7 |
| 20260505020035 | 16 | 324 | 3.2 | 9.7 | 0.00 | 0.00 | 0.00 | 69 | 1021.7 |
| 20260505015031 | 16 | 310 | 3.2 | 11.3 | 0.00 | 0.00 | 0.00 | 69 | 1021.7 |
| 20260505014028 | 15 | 326 | 3.2 | 9.7 | 0.00 | 0.00 | 0.00 | 69 | 1021.7 |
| 20260505013025 | 15 | 310 | 3.2 | 6.4 | 0.00 | 0.00 | 0.00 | 70 | 1021.8 |
| 20260505012023 | 15 | 292 | 3.2 | 6.4 | 0.00 | 0.00 | 0.00 | 71 | 1021.9 |
| 20260505011021 | 15 | 311 | 3.2 | 14.5 | 0.00 | 0.00 | 0.00 | 72 | 1021.9 |
| 20260505010018 | 15 | 324 | 3.2 | 9.7 | 0.00 | 0.00 | 0.00 | 72 | 1021.8 |
| 20260505005016 | 15 | 326 | 3.2 | 12.9 | 0.00 | 0.00 | 0.00 | 73 | 1021.7 |
| 20260505004033 | 15 | 300 | 3.2 | 9.7 | 0.00 | 0.00 | 0.00 | 73 | 1021.6 |
| 20260505003031 | 15 | 335 | 4.8 | 9.7 | 0.00 | 0.00 | 0.00 | 73 | 1021.5 |
| 20260505002030 | 15 | 341 | 3.2 | 9.7 | 0.00 | 0.00 | 0.00 | 74 | 1021.4 |
| 20260505001027 | 15 | 329 | 3.2 | 11.3 | 0.00 | 0.00 | 0.00 | 74 | 1021.2 |
| 20260505000024 | 15 | 321 | 3.2 | 12.9 | 0.00 | 0.00 | 0.00 | 75 | 1021.2 |
| 20260504235042 | 15 | 315 | 3.2 | 6.4 | 0.00 | 0.00 | 0.00 | 75 | 1021.1 |
| 20260504234020 | 15 | 316 | 3.2 | 11.3 | 0.00 | 0.00 | 0.00 | 76 | 1021.0 |
| 20260504233017 | 15 | 319 | 3.2 | 12.9 | 0.00 | 0.00 | 0.00 | 76 | 1021.0 |
| 20260504232035 | 15 | 324 | 3.2 | 9.7 | 0.00 | 0.00 | 0.00 | 77 | 1020.9 |
| 20260504231033 | 15 | 334 | 3.2 | 9.7 | 0.00 | 0.00 | 0.00 | 77 | 1020.8 |
| 20260504230030 | 15 | 317 | 4.8 | 11.3 | 0.00 | 0.00 | 0.00 | 78 | 1020.7 |
| 20260504225049 | 14 | 312 | 3.2 | 6.4 | 0.00 | 0.00 | 0.00 | 77 | 1020.7 |
| 20260504224025 | 14 | 324 | 1.6 | 9.7 | 0.00 | 0.00 | 0.00 | 78 | 1020.6 |
| 20260504223043 | 14 | 321 | 1.6 | 6.4 | 0.00 | 0.00 | 0.00 | 78 | 1020.3 |
| 20260504222020 | 14 | 321 | 3.2 | 17.7 | 0.00 | 0.00 | 0.00 | 78 | 1020.1 |
| 20260504221017 | 14 | 309 | 1.6 | 11.3 | 0.00 | 0.00 | 0.00 | 79 | 1019.8 |
| 20260504220035 | 14 | 308 | 3.2 | 11.3 | 0.00 | 0.00 | 0.00 | 79 | 1019.7 |
| 20260504215032 | 14 | 331 | 3.2 | 12.9 | 0.00 | 0.00 | 0.00 | 79 | 1019.4 |
| 20260504214029 | 14 | 346 | 4.8 | 16.1 | 0.00 | 0.00 | 0.00 | 80 | 1019.3 |
| 20260504213027 | 14 | 308 | 1.6 | 11.3 | 0.00 | 0.00 | 0.00 | 80 | 1019.0 |
| 20260504212025 | 14 | 313 | 1.6 | 11.3 | 0.00 | 0.00 | 0.00 | 80 | 1018.9 |
| 20260504211021 | 14 | 317 | 1.6 | 6.4 | 0.00 | 0.00 | 0.00 | 80 | 1018.7 |
| 20260504210019 | 14 | 290 | 3.2 | 9.7 | 0.00 | 0.00 | 0.00 | 80 | 1018.5 |
| 20260504205016 | 14 | 289 | 3.2 | 12.9 | 0.00 | 0.00 | 0.00 | 80 | 1018.3 |
| 20260504204034 | 14 | 336 | 3.2 | 14.5 | 0.00 | 0.00 | 0.00 | 81 | 1018.4 |
| 20260504202030 | 14 | 303 | 3.2 | 11.3 | 0.00 | 0.00 | 0.00 | 81 | 1018.0 |
| 20260504201030 | 14 | 325 | 3.2 | 14.5 | 0.00 | 0.00 | 0.00 | 81 | 1017.9 |
| 20260504200024 | 14 | 312 | 3.2 | 11.3 | 0.00 | 0.00 | 0.00 | 81 | 1017.8 |
| 20260504195023 | 14 | 306 | 4.8 | 14.5 | 0.00 | 0.00 | 0.00 | 81 | 1017.5 |
| 20260504194020 | 14 | 337 | 4.8 | 16.1 | 0.00 | 0.00 | 0.00 | 80 | 1017.5 |
| 20260504193017 | 14 | 326 | 4.8 | 16.1 | 0.00 | 0.00 | 0.00 | 80 | 1017.4 |
| 20260504192035 | 14 | 321 | 3.2 | 16.1 | 0.00 | 0.00 | 0.00 | 80 | 1017.3 |
| 20260504191032 | 14 | 320 | 3.2 | 12.9 | 0.00 | 0.00 | 0.00 | 80 | 1017.2 |
| 20260504190050 | 14 | 321 | 4.8 | 11.3 | 0.00 | 0.00 | 0.00 | 79 | 1017.1 |
| 20260504185028 | 14 | 321 | 4.8 | 14.5 | 0.00 | 0.00 | 0.00 | 79 | 1017.0 |
| 20260504184025 | 14 | 335 | 3.2 | 20.9 | 0.00 | 0.00 | 0.00 | 79 | 1017.0 |
| 20260504183023 | 14 | 291 | 3.2 | 12.9 | 0.00 | 0.00 | 0.00 | 79 | 1016.6 |
| 20260504182022 | 15 | 336 | 6.4 | 16.1 | 0.00 | 0.00 | 0.00 | 79 | 1016.5 |
| 20260504181018 | 15 | 310 | 3.2 | 12.9 | 0.00 | 0.00 | 0.00 | 78 | 1016.5 |
| 20260504180035 | 15 | 327 | 4.8 | 16.1 | 0.00 | 0.00 | 0.00 | 78 | 1016.5 |
| 20260504175033 | 15 | 329 | 4.8 | 12.9 | 0.00 | 0.00 | 0.00 | 78 | 1016.4 |
| 20260504174030 | 15 | 329 | 4.8 | 14.5 | 0.00 | 0.00 | 0.00 | 78 | 1016.3 |
| 20260504173049 | 15 | 316 | 4.8 | 17.7 | 0.00 | 0.00 | 0.00 | 77 | 1016.3 |
| 20260504172026 | 15 | 325 | 4.8 | 14.5 | 0.00 | 0.00 | 0.00 | 77 | 1016.2 |
| 20260504171025 | 15 | 324 | 3.2 | 11.3 | 0.00 | 0.00 | 0.00 | 76 | 1016.1 |
| 20260504151036 | 15 | 324 | 6.4 | 16.1 | 0.00 | 0.00 | 0.00 | 73 | 1015.3 |
| 20260504141020 | 15 | 312 | 8.0 | 14.5 | 0.00 | 0.00 | 0.00 | 73 | 1014.7 |